Location: Handeloh
(53.2500°N, 9.8330°E)
Time: 09:56:43
(UTC+01:00)

Transit 4A - Visible Passes

Search period start: 20 November 2019 00:00
Search period end: 30 November 2019 00:00
Orbit: 869 x 976 km, 66.8° (Epoch: 19 November)

Date Brightness Start Highest point End Pass type
(mag) Time Alt. Az. Time Alt. Az. Time Alt. Az.
20 Nov 10.1 03:00:38 18° NE 03:00:38 18° NE 03:03:01 10° ENE visible
20 Nov 8.9 04:44:10 28° N 04:46:25 37° NNE 04:51:51 10° E visible
20 Nov 7.8 06:27:41 12° NW 06:33:16 72° SW 06:39:03 10° SSE visible
21 Nov 9.9 03:10:01 21° NE 03:10:01 21° NE 03:12:53 10° ENE visible
21 Nov 8.6 04:53:33 30° NNW 04:56:00 45° NE 05:01:36 10° ESE visible
21 Nov 8.0 06:37:04 12° NW 06:42:30 53° WSW 06:48:09 10° SSE visible
22 Nov 9.8 03:19:27 23° NE 03:19:27 23° NE 03:22:47 10° ENE visible
22 Nov 8.3 05:02:59 33° NNW 05:05:30 57° NE 05:11:15 10° ESE visible
22 Nov 8.4 06:46:31 11° NW 06:51:42 39° WSW 06:57:02 10° S visible
23 Nov 9.6 03:28:56 26° NE 03:28:56 26° NE 03:32:42 10° E visible
23 Nov 7.9 05:12:28 37° NNW 05:14:56 74° NE 05:20:46 10° SE visible
23 Nov 8.8 06:56:00 10° NW 07:00:49 28° WSW 07:05:39 10° SSW visible
24 Nov 9.4 03:38:29 31° NE 03:38:29 31° NE 03:42:34 10° E visible
24 Nov 7.7 05:22:01 40° NW 05:24:18 86° SW 05:30:08 10° SE visible
24 Nov 9.1 07:05:42 10° WNW 07:09:51 20° WSW 07:13:57 10° SSW visible
25 Nov 9.1 03:48:06 36° ENE 03:48:06 36° ENE 03:52:22 10° ESE visible
25 Nov 7.7 05:31:40 41° WNW 05:33:36 65° WSW 05:39:21 10° SSE visible
25 Nov 9.5 07:15:57 10° WNW 07:18:49 14° WSW 07:21:40 10° SW visible
26 Nov 8.9 03:57:48 41° ENE 03:57:48 41° ENE 04:02:05 10° ESE visible
26 Nov 8.0 05:41:21 39° W 05:42:50 47° WSW 05:48:22 10° S visible
27 Nov 8.7 04:07:35 44° ESE 04:07:35 44° ESE 04:11:41 10° SE visible
27 Nov 8.4 05:51:09 33° W 05:52:00 34° WSW 05:57:10 10° S visible
28 Nov 8.7 04:17:27 41° SE 04:17:27 41° SE 04:21:10 10° SE visible
28 Nov 8.8 06:01:01 25° WSW 06:01:04 25° WSW 06:05:41 10° SSW visible
29 Nov 9.0 04:27:24 33° SSE 04:27:24 33° SSE 04:30:28 10° SSE visible
29 Nov 9.3 06:10:59 17° WSW 06:10:59 17° WSW 06:13:49 10° SW visible
29 Nov 9.8 19:31:33 10° S 19:32:48 16° S 19:32:48 16° S visible
